[[{"header":{"parameterUnit":"m.s-1","parameterCategory":1,"la1":30.2991,"la2":30.254,"lo1":-89.0895,"lo2":-89.0444,"dy":0.0017,"dx":0.0017,"nx":28,"ny":28,"refTime":"2025-12-04T03:00:00:Z","depth":0,"parameterNumber":2,"parameterNumberName":"U-component_of_WINDS"},"data":[0,0,0,0,0,0,0,0,0,0,0,0,0,0,0,0,0,0,0,0,0,0,0,0,0,0,0,0,0,0,0,0,0,0,0,0,0,0,0,0,0,0,0,0,0,0,0,0,0,0,0,0,0,0,0,0,0,0,-8.6535,-8.6536,0,-8.6646,-8.6648,-8.6649,-8.65,-8.6495,-8.6489,-8.6484,-8.6595,-8.6602,-8.661,0,0,0,0,0,0,0,0,0,0,0,0,0,-8.619,-8.6197,-8.6535,-8.6537,-8.6538,-8.6646,-8.6648,-8.6649,-8.6501,-8.6494,-8.6488,-8.6482,-8.6592,-8.6601,-8.6611,0,0,0,0,0,0,0,0,0,0,0,0,0,-8.6325,-8.62,-8.6535,-8.6477,-8.6473,-8.6646,-8.6648,-8.665,-8.6502,-8.6494,-8.6486,-8.6479,-8.6589,-8.66,-8.6612,-8.6846,0,0,-8.6649,-8.6654,0,0,0,0,0,0,0,0,-8.6317,-8.6337,-8.6484,-8.6481,-8.6477,-8.6551,-8.6566,-8.6715,-8.6504,-8.6491,-8.6484,-8.6475,-8.6586,-8.6598,-8.6636,-8.6851,-8.6856,-8.665,-8.6657,-8.6662,-8.6665,0,0,0,0,0,0,0,-8.6308,-8.6332,-8.6579,-8.6486,-8.6482,-8.6444,-8.6454,-8.6594,-8.6582,-8.6492,-8.6481,-8.6496,-8.6583,-8.6625,-8.6638,-8.6858,-8.6649,-8.666,-8.6667,-8.6672,-8.7268,-8.7276,0,0,0,0,0,0,-8.6306,-8.6325,-8.6575,-8.6582,-8.6376,-8.6457,-8.6468,-8.6535,-8.658,-8.658,-8.6503,-8.6489,-8.6609,-8.6624,-8.6641,-8.6916,-8.6662,-8.6673,-8.668,-8.7259,-8.727,-8.7279,0,0,0,0,0,0,-8.6299,-8.633,-8.6571,-8.6451,-8.6479,-8.6471,-8.6548,-8.6542,-8.6584,-8.6589,-8.6586,-8.6549,-8.6603,-8.6624,-8.6796,-8.6918,-8.6678,-8.6689,-8.7249,-8.7262,-8.7274,-8.7469,0,0,0,0,0,0,-8.629,-8.6328,-8.6418,-8.6454,-8.6486,-8.6726,-8.6556,-8.655,-8.6605,-8.6588,-8.6631,-8.6631,-8.6599,-8.6779,-8.6808,-8.693,-8.6698,-8.7238,-8.7255,-8.727,-8.7451,-8.7487,-8.7517,0,0,0,0,0,-8.6278,-8.6468,-8.6423,-8.6454,-8.6598,-8.6733,-8.6751,-8.6711,-8.6616,-8.6705,-8.6708,-8.6629,-8.6901,-8.6798,-8.6829,-8.6956,-8.723,-8.725,-8.7269,-8.7437,-8.748,-8.7516,0,0,0,0,0,0,-8.6445,-8.6472,-8.6422,-8.663,-8.6681,-8.6708,-8.6819,-8.6759,-8.6836,-8.6817,-8.6763,-8.6774,-8.6957,-8.6974,-8.6859,-8.7184,-8.7049,-8.7076,-8.7166,-8.7207,-8.7239,-8.723,-8.6708,0,0,0,0,0,-8.6507,-8.6616,-8.6632,-8.6813,-8.6842,-8.6827,-8.6884,-8.6849,-8.6899,-8.6919,-8.6934,-8.6985,-8.7081,-8.7145,-8.7234,-8.7454,-8.746,-8.7557,-8.759,-8.7617,-8.764,-8.7755,-8.7797,-8.7343,-8.7343,-8.7343,0,0,-8.6634,-8.6662,-8.6733,-8.6848,-8.6883,-8.6995,-8.6845,-8.6971,-8.7053,-8.6937,-8.71,-8.7114,-8.7166,-8.7362,-8.745,-8.7382,-8.7767,-8.7642,-8.7663,-8.7671,-8.7779,-8.7822,-8.786,-8.7357,-8.7354,-8.7352,0,0,-8.6922,-8.6955,-8.7109,-8.7147,-8.7203,-8.7191,-8.7229,-8.7266,-8.727,-8.7433,-8.7349,-8.7445,-8.7613,-8.7653,-8.7695,-8.8,-8.7929,-8.803,-8.8201,-8.8314,-8.8349,-8.8381,-8.8487,-8.8526,-8.8053,-8.8054,-8.8054,0,-8.7072,-8.7239,-8.7195,-8.7327,-8.7378,-8.7281,-8.7435,-8.7474,-8.7556,-8.7593,-8.7517,-8.7724,-8.7753,-8.7956,-8.803,-8.8069,-8.8108,-8.8023,-8.8348,-8.8379,-8.8408,-8.8508,-8.8548,-8.8066,-8.8064,-8.8063,-8.8062,0,-8.7419,-8.7537,-8.7654,-8.7736,-8.7801,-8.7944,-8.792,-8.7992,-8.7952,-8.7948,-8.8114,-8.8145,-8.8238,-8.8284,-8.8246,-8.8482,-8.8438,-8.8357,-8.8219,-8.8464,-8.8557,-8.8595,-8.8082,-8.8078,-8.8075,-8.8072,0,0,-8.7814,-8.7871,-8.7914,-8.7949,-8.8004,-8.8093,-8.823,-8.8322,-8.8383,-8.8443,-8.8555,-8.87,-8.8624,-8.8672,-8.8638,-8.8738,-8.8974,-8.8643,-8.8643,-8.8701,-8.9233,-8.9292,-8.9337,-8.8929,-8.8936,-8.8941,-8.9227,0,-8.81,-8.8338,-8.8303,-8.8532,-8.8638,-8.8548,-8.8667,-8.8712,-8.8713,-8.8802,-8.8802,-8.8905,-8.8799,-8.8827,-8.8922,-8.8925,-8.9079,-8.8904,-8.903,-8.9035,-8.9017,-8.9386,-8.9449,-8.9718,-8.9264,-8.927,-8.9274,0,-8.8464,-8.8538,-8.8778,-8.8815,-8.8858,-8.8967,-8.9047,-8.9135,-8.9184,-8.9177,-8.9232,-8.918,-8.9315,-8.9178,-8.9363,-8.9245,-8.9294,-8.9304,-8.9313,-8.9321,-8.9167,-8.9401,-8.9802,-8.9842,-8.9332,-8.9327,-8.9323,0,-8.8724,-8.8884,-8.9048,-8.9081,-8.9129,-8.9207,-8.923,-8.9272,-8.9329,-8.94,-8.9435,-8.9521,-8.9567,-8.9634,-8.9605,-8.9509,-8.9795,-8.9656,-8.9791,-8.9792,-8.9853,-8.9849,-9.0265,-8.989,-8.989,-8.9889,-8.9888,0,-8.9045,-8.9195,-8.9165,-8.9266,-8.943,-8.9388,-8.9552,-8.9564,-8.9602,-8.9702,-8.9629,-8.9724,-8.9682,-8.9774,-8.9753,-8.9908,-8.993,-8.9927,-8.9919,-8.9932,-8.9932,-8.9961,-8.994,-8.99,-8.9897,-8.9895,-8.9893,0,-8.9362,-8.9349,-8.9521,-8.9553,-8.9564,-8.9684,-8.971,-8.9803,-8.9799,-8.9926,-8.9953,-8.9947,-9.0051,-9.003,-9.0145,-9.013,-9.0324,-9.0294,-9.0307,-9.0299,-9.0434,-9.042,-9.0881,-9.0938,-9.053,-9.0534,-9.0537,0,-8.9567,-8.968,-8.9724,-8.9786,-8.9815,-8.9917,-8.9975,-8.9938,-9.0002,-9.0066,-9.0152,-9.025,-9.0326,-9.0497,-9.0501,-9.0588,-9.0558,-9.0714,-9.057,-9.0579,-9.0557,-9.0549,-9.0559,-9.0741,-9.0745,-9.0749,-9.0752,0,-8.993,-8.9917,-9.0004,-9.009,-9.0162,-9.0227,-9.0285,-9.034,-9.0308,-9.0382,-9.0489,-9.0548,-9.0666,-9.0763,-9.0844,-9.0866,-9.0804,-9.0798,-9.0833,-9.0846,-9.0847,-9.0845,-9.0381,-9.0787,-9.0783,-9.0781,-9.0779,-9.0777,-9.0194,-9.0289,-9.0335,-9.0435,-9.0475,-9.0531,-9.0619,-9.0627,-9.0715,-9.0809,-9.0782,-9.0902,-9.0948,-9.105,-9.1082,-9.1174,-9.1116,-9.1168,-9.118,-9.1193,-9.1208,-9.0836,-9.1189,-9.1188,-9.1187,-9.1187,-9.1186,0,-9.055,-9.0576,-9.0668,-9.0751,-9.0829,-9.0766,-9.0827,-9.0896,-9.1003,-9.1052,-9.1129,-9.125,-9.1345,-9.1357,-9.1446,-9.1517,-9.1491,-9.1542,-9.1534,-9.154,-9.1257,-9.1216,-9.1561,-9.1561,-9.1561,-9.1561,-9.1561,-9.1561,-9.0745,-9.0902,-9.0896,-9.1072,-9.1096,-9.1214,-9.1254,-9.1305,-9.1343,-9.1482,-9.1561,-9.1569,-9.1602,-9.1693,-9.1776,-9.1777,-9.1812,-9.1873,-9.1863,-9.1598,-9.156,-9.1524,-9.1485,-9.1882,-9.1882,-9.2138,-9.214,-9.2142]},{"header":{"parameterUnit":"m.s-1","parameterCategory":1,"la1":30.2991,"la2":30.254,"lo1":-89.0895,"lo2":-89.0444,"dy":0.0017,"dx":0.0017,"nx":28,"ny":28,"refTime":"2025-12-04T03:00:00:Z","depth":0,"parameterNumber":3,"parameterNumberName":"V-component_of_WINDS"},"data":[0,0,0,0,0,0,0,0,0,0,0,0,0,0,0,0,0,0,0,0,0,0,0,0,0,0,0,0,0,0,0,0,0,0,0,0,0,0,0,0,0,0,0,0,0,0,0,0,0,0,0,0,0,0,0,0,0,0,0.9249,0.9249,0,0.9225,0.9225,0.9224,0.9235,0.9236,0.9237,0.9237,0.9207,0.9206,0.9204,0,0,0,0,0,0,0,0,0,0,0,0,0,0.9301,0.93,0.9249,0.9249,0.9249,0.9225,0.9225,0.9224,0.9235,0.9236,0.9237,0.9237,0.9207,0.9206,0.9204,0,0,0,0,0,0,0,0,0,0,0,0,0,0.9278,0.93,0.9249,0.9251,0.9251,0.9225,0.9225,0.9224,0.9235,0.9236,0.9237,0.9238,0.9208,0.9206,0.9204,0.9172,0,0,0.9198,0.9197,0,0,0,0,0,0,0,0,0.9279,0.9276,0.9251,0.9251,0.9251,0.9234,0.9232,0.9207,0.9235,0.9241,0.9237,0.9238,0.9215,0.9212,0.9206,0.9171,0.917,0.9197,0.9196,0.9195,0.9195,0,0,0,0,0,0,0,0.9281,0.9277,0.924,0.9251,0.9251,0.9252,0.925,0.9227,0.9223,0.9241,0.9241,0.9239,0.9215,0.9208,0.9205,0.9169,0.9197,0.9196,0.9194,0.9193,0.9108,0.9107,0,0,0,0,0,0,0.9283,0.9278,0.924,0.9239,0.9268,0.9251,0.9248,0.9239,0.9223,0.9222,0.9238,0.9239,0.9211,0.9207,0.9204,0.9166,0.9195,0.9193,0.9192,0.9109,0.9108,0.9107,0,0,0,0,0,0,0.9284,0.9279,0.9241,0.9259,0.9254,0.9249,0.9238,0.9238,0.923,0.9221,0.922,0.9231,0.9211,0.9207,0.9181,0.9165,0.9192,0.919,0.911,0.9109,0.9107,0.9091,0,0,0,0,0,0,0.9285,0.928,0.9269,0.9259,0.9253,0.922,0.9237,0.9237,0.9227,0.9229,0.9215,0.9213,0.9212,0.9184,0.9179,0.9163,0.9189,0.9112,0.911,0.9108,0.9093,0.9089,0.9086,0,0,0,0,0,0.9287,0.9264,0.9268,0.9263,0.9239,0.9219,0.9216,0.9216,0.9226,0.9214,0.9209,0.9214,0.9168,0.9181,0.9175,0.9159,0.9113,0.911,0.9108,0.9094,0.909,0.9086,0,0,0,0,0,0,0.927,0.9262,0.9267,0.924,0.923,0.9221,0.9206,0.9211,0.9196,0.9198,0.9198,0.9194,0.9167,0.916,0.9175,0.9128,0.9142,0.9138,0.9133,0.9129,0.9125,0.9127,0.9187,0,0,0,0,0,0.9263,0.9249,0.9242,0.9219,0.9214,0.9211,0.9202,0.9203,0.9192,0.9188,0.918,0.9168,0.9151,0.914,0.9123,0.9092,0.9089,0.9078,0.9075,0.9072,0.9068,0.9051,0.9046,0.9099,0.9099,0.9099,0,0,0.9249,0.9243,0.9233,0.9215,0.9208,0.9192,0.9207,0.9189,0.9177,0.9184,0.916,0.9154,0.914,0.9112,0.9098,0.9105,0.9053,0.9069,0.9067,0.9065,0.9048,0.9043,0.9039,0.9098,0.9098,0.9098,0,0,0.9214,0.9208,0.9188,0.9181,0.9171,0.9169,0.9164,0.9155,0.9152,0.9128,0.9133,0.9118,0.9088,0.9079,0.907,0.9033,0.9037,0.9028,0.9009,0.8992,0.8988,0.8984,0.8971,0.8966,0.9025,0.9025,0.9025,0,0.9196,0.9174,0.9177,0.9159,0.9151,0.9159,0.9139,0.9131,0.9115,0.9108,0.9117,0.9081,0.9072,0.9042,0.9033,0.9026,0.9019,0.9029,0.8989,0.8985,0.8982,0.8968,0.8963,0.9024,0.9024,0.9024,0.9024,0,0.9153,0.9137,0.9122,0.9109,0.9099,0.9079,0.9078,0.9068,0.907,0.9067,0.9042,0.9033,0.9015,0.9008,0.9009,0.8978,0.8982,0.899,0.9003,0.8975,0.8963,0.8958,0.9022,0.9022,0.9023,0.9023,0,0,0.9104,0.9095,0.9089,0.9084,0.9073,0.906,0.9041,0.9026,0.9017,0.9006,0.8989,0.8965,0.8973,0.8962,0.8963,0.8948,0.8919,0.8958,0.8957,0.895,0.8883,0.8877,0.8871,0.8923,0.8922,0.8921,0.8884,0,0.9069,0.9037,0.904,0.9009,0.8995,0.9003,0.8987,0.8978,0.8975,0.8961,0.8957,0.894,0.8951,0.8945,0.8932,0.8926,0.8906,0.8929,0.8905,0.8905,0.8908,0.8865,0.8858,0.8823,0.8879,0.8879,0.8878,0,0.9022,0.9012,0.898,0.8974,0.8967,0.8952,0.8939,0.8926,0.8916,0.8915,0.8905,0.8908,0.8887,0.8903,0.8874,0.889,0.888,0.8876,0.8875,0.8872,0.8889,0.8859,0.8812,0.8807,0.887,0.8871,0.8872,0,0.899,0.8968,0.8946,0.8941,0.8933,0.8922,0.8918,0.8909,0.89,0.8888,0.8882,0.8866,0.8858,0.8845,0.8844,0.8855,0.8815,0.883,0.8812,0.8812,0.8801,0.8802,0.8751,0.8797,0.8797,0.8797,0.8797,0,0.8949,0.8929,0.8932,0.8919,0.8897,0.89,0.8878,0.8874,0.8866,0.8852,0.8858,0.8843,0.8843,0.8828,0.8826,0.8802,0.8798,0.8796,0.8795,0.8795,0.8795,0.8788,0.8789,0.8796,0.8796,0.8797,0.8797,0,0.8908,0.891,0.8887,0.8881,0.888,0.8863,0.8858,0.8845,0.8843,0.8824,0.882,0.8817,0.8799,0.8797,0.8776,0.8775,0.8746,0.8749,0.875,0.875,0.8732,0.8733,0.8674,0.8666,0.8718,0.8717,0.8717,0,0.8882,0.8867,0.8861,0.8852,0.8848,0.8834,0.8825,0.8828,0.8819,0.8807,0.8795,0.8779,0.8766,0.8737,0.8732,0.8716,0.8717,0.8698,0.8715,0.8714,0.8716,0.8716,0.8715,0.8694,0.8693,0.8693,0.8692,0,0.8834,0.8836,0.8824,0.8813,0.8803,0.8794,0.8785,0.8777,0.8779,0.8768,0.8751,0.8741,0.8721,0.8704,0.8689,0.8683,0.8687,0.8688,0.8682,0.8681,0.8682,0.868,0.874,0.8688,0.8689,0.8689,0.8689,0.8689,0.8799,0.8787,0.8781,0.8767,0.8762,0.8754,0.8742,0.8739,0.8726,0.8711,0.8714,0.8695,0.8685,0.8666,0.8658,0.8643,0.8649,0.8642,0.8639,0.8637,0.8635,0.8686,0.864,0.864,0.864,0.864,0.864,0,0.8751,0.8748,0.8737,0.8725,0.8715,0.8723,0.8714,0.8704,0.8688,0.868,0.8668,0.8649,0.8633,0.8627,0.8611,0.86,0.8601,0.8595,0.8595,0.8594,0.8631,0.8637,0.8594,0.8594,0.8594,0.8594,0.8594,0.8594,0.8725,0.8705,0.8706,0.8682,0.8679,0.8663,0.8657,0.8649,0.8643,0.8622,0.8609,0.8607,0.8599,0.8583,0.8568,0.8567,0.856,0.8553,0.8552,0.8587,0.8591,0.8596,0.8601,0.8552,0.8552,0.8516,0.8516,0.8516]}]]